Location: Vaughan
(31.9146°N, 97.1736°W)
Time: 23:31:02
(UTC+00:00)

Centaur D AC-28 - Pass Details

Date: 10 December 2025
Orbit: 634 x 36405 km, 28.6° (Epoch: 19 January)

Event Time Altitude Azimuth Distance (km) Brightness Sun altitude
Exits shadow 11:48:51 20° 262° (W) 3,484 4.8 -18.5°
Maximum altitude 11:53:11 29° 222° (SW) 1,979 3.9 -17.6°
Drops below altitude 10° 11:57:10 10° 158° (SSE) 2,247 4.9 -16.8°
Sets 11:59:02 0° 144° (SE) 2,955 5.9 -16.4°
